Home > Weather > Antioch > Past weeks

Flag for U.S.A. Weather for the Past 2 Weeks in Antioch, California, U.S.A.

Now
59 °F

Clear.


Feels Like: 58 °F
Forecast: 44 / 70 °F
Wind: 6 mph from Southeast

Location: Buchanan Field

Current Time: Feb 8, 2016 at 6:51:38 AM

Latest Report: Feb 8, 2016 at 5:53 AM


Visibility: 10 mi

Pressure: 30.20 "Hg

Humidity: 54%

Dew point: 42 °F

Location of AntiochLocation

Historic Weather in Antioch — Graph

°F

Antioch Temperature Yesterday

Maximum temperature yesterday: 70 °F (at 2:53 PM)
Minimum temperature yesterday: 42 °F (at 6:53 AM)
Average temperature yesterday: 56 °F

High & Low Weather Summary for the Past Weeks

 TemperatureHumidityPressure
High70 °F (Feb 7, 2:53 PM)93% (Jan 26, 7:53 AM)30.45 "Hg (Jan 26, 7:53 AM)
Low37 °F (Feb 5, 6:53 AM)27% (Feb 1, 2:53 PM)29.70 "Hg (Jan 31, 2:53 PM)
Average52 °F70%30.20 "Hg
* Reported Jan 24 5:53 AM — Feb 8 5:53 AM, Antioch, Weather by CustomWeather, © 2016

Note: Actual official high and low records may vary slightly from our data, if they occured in-between our weather recording intervals... More about our weather records

Advertising

Antioch Weather History for the Previous 24 Hours

 ConditionsComfort  
Time TempWeatherWind HumidityBarometerVisibility
5:53 AM
Mon, Feb 8
59 °FClear.6 mph54%30.20 "Hg10 mi
4:53 AM49 °FClear.6 mph80%30.20 "Hg9 mi
3:53 AM49 °FClear.No wind80%30.19 "Hg7 mi
2:53 AM51 °FClear.8 mph80%30.20 "Hg7 mi
1:53 AM52 °FClear.9 mph77%30.19 "Hg8 mi
12:53 AM52 °FClear.9 mph80%30.19 "Hg8 mi
11:53 PM
Sun, Feb 7
54 °FClear.7 mph77%30.19 "Hg10 mi
10:53 PM51 °FClear.7 mph83%30.19 "Hg8 mi
9:53 PM53 °FClear.7 mph77%30.19 "Hg10 mi
8:53 PM53 °FClear.6 mph77%30.18 "Hg10 mi
7:53 PM56 °FClear.5 mph72%30.16 "Hg10 mi
6:53 PM56 °FClear.6 mph70%30.16 "Hg10 mi
5:53 PM66 °FClear.3 mph45%30.15 "Hg10 mi
4:53 PM69 °FSunny.8 mph41%30.14 "Hg10 mi
3:53 PM70 °FSunny.7 mph41%30.14 "Hg10 mi
2:53 PM70 °FSunny.8 mph41%30.14 "Hg10 mi
1:53 PM69 °FSunny.8 mph42%30.16 "Hg10 mi
12:53 PM68 °FSunny.9 mph45%30.19 "Hg10 mi
11:53 AM65 °FSunny.9 mph47%30.22 "Hg10 mi
10:53 AM62 °FSunny.7 mph50%30.25 "Hg10 mi
9:53 AM58 °FSunny.3 mph58%30.27 "Hg10 mi
8:53 AM56 °FSunny.7 mph60%30.27 "Hg10 mi
7:53 AM44 °FSunny.No wind82%30.26 "Hg10 mi
6:53 AM42 °FClear.No wind82%30.25 "Hg10 mi
Weather by CustomWeather, © 2016

See weather overviewHow to use our weather pages